Year,Month,Day,Hour,Minute,Value (Times are PST for temperature in C)
2007,07,12,00,00,14.60
2007,07,12,00,01,14.60
2007,07,12,00,02,14.60
2007,07,12,00,03,14.60
2007,07,12,00,04,14.60
2007,07,12,00,05,14.60
2007,07,12,00,06,14.60
2007,07,12,00,07,14.60
2007,07,12,00,08,14.60
2007,07,12,00,09,14.60
2007,07,12,00,10,14.60
2007,07,12,00,11,14.60
2007,07,12,00,12,14.50
2007,07,12,00,13,14.50
2007,07,12,00,14,14.50
2007,07,12,00,15,14.50
2007,07,12,00,16,14.60
2007,07,12,00,17,14.60
2007,07,12,00,18,14.60
2007,07,12,00,19,14.60
2007,07,12,00,20,14.60
2007,07,12,00,21,14.70
2007,07,12,00,22,14.70
2007,07,12,00,23,14.70
2007,07,12,00,24,14.70
2007,07,12,00,25,14.70
2007,07,12,00,26,14.70
2007,07,12,00,27,14.70
2007,07,12,00,28,14.70
2007,07,12,00,29,14.70
2007,07,12,00,30,14.70
2007,07,12,00,31,14.70
2007,07,12,00,32,14.70
2007,07,12,00,33,14.70
2007,07,12,00,34,14.80
2007,07,12,00,35,14.80
2007,07,12,00,36,14.80
2007,07,12,00,37,14.90
2007,07,12,00,38,14.90
2007,07,12,00,39,14.90
2007,07,12,00,40,14.90
2007,07,12,00,41,14.90
2007,07,12,00,42,14.90
2007,07,12,00,43,14.90
2007,07,12,00,44,15.00
2007,07,12,00,45,15.00
2007,07,12,00,46,15.00
2007,07,12,00,47,15.00
2007,07,12,00,48,15.00
2007,07,12,00,49,15.00
2007,07,12,00,50,15.00
2007,07,12,00,51,15.00
2007,07,12,00,52,15.00
2007,07,12,00,53,15.00
2007,07,12,00,54,15.00
2007,07,12,00,55,15.00
2007,07,12,00,56,15.00
2007,07,12,00,57,15.00
2007,07,12,00,58,15.00
2007,07,12,00,59,15.00
2007,07,12,01,00,15.00
2007,07,12,01,01,15.00
2007,07,12,01,02,15.00
2007,07,12,01,03,15.00
2007,07,12,01,04,15.00
2007,07,12,01,05,15.00
2007,07,12,01,06,15.00
2007,07,12,01,07,15.00
2007,07,12,01,08,15.00
2007,07,12,01,09,15.00
2007,07,12,01,10,15.00
2007,07,12,01,11,15.00
2007,07,12,01,12,15.00
2007,07,12,01,13,15.00
2007,07,12,01,14,15.00
2007,07,12,01,15,15.00
2007,07,12,01,16,15.00
2007,07,12,01,17,15.00
2007,07,12,01,18,15.00
2007,07,12,01,19,15.00
2007,07,12,01,20,15.00
2007,07,12,01,21,15.00
2007,07,12,01,22,15.10
2007,07,12,01,23,15.10
2007,07,12,01,24,15.10
2007,07,12,01,25,15.10
2007,07,12,01,26,15.10
2007,07,12,01,27,15.10
2007,07,12,01,28,15.20
2007,07,12,01,29,15.20
2007,07,12,01,30,15.20
2007,07,12,01,31,15.20
2007,07,12,01,32,15.20
2007,07,12,01,33,15.20
2007,07,12,01,34,15.20
2007,07,12,01,35,15.20
2007,07,12,01,36,15.30
2007,07,12,01,37,15.30
2007,07,12,01,38,15.30
2007,07,12,01,39,15.30
2007,07,12,01,40,15.30
2007,07,12,01,41,15.30
2007,07,12,01,42,15.30
2007,07,12,01,43,15.30
2007,07,12,01,44,15.30
2007,07,12,01,45,15.40
2007,07,12,01,46,15.40
2007,07,12,01,47,15.40
2007,07,12,01,48,15.40
2007,07,12,01,49,15.40
2007,07,12,01,50,15.40
2007,07,12,01,51,15.40
2007,07,12,01,52,15.50
2007,07,12,01,53,15.50
2007,07,12,01,54,15.50
2007,07,12,01,55,15.50
2007,07,12,01,56,15.50
2007,07,12,01,57,15.50
2007,07,12,01,58,15.50
2007,07,12,01,59,15.50
2007,07,12,02,00,15.50
2007,07,12,02,01,15.50
2007,07,12,02,02,15.50
2007,07,12,02,03,15.50
2007,07,12,02,04,15.50
2007,07,12,02,05,15.50
2007,07,12,02,06,15.50
2007,07,12,02,07,15.60
2007,07,12,02,08,15.60
2007,07,12,02,09,15.60
2007,07,12,02,10,15.60
2007,07,12,02,11,15.60
2007,07,12,02,12,15.60
2007,07,12,02,13,15.60
2007,07,12,02,14,15.60
2007,07,12,02,15,15.70
2007,07,12,02,16,15.70
2007,07,12,02,17,15.70
2007,07,12,02,18,15.70
2007,07,12,02,19,15.70
2007,07,12,02,20,15.70
2007,07,12,02,21,15.70
2007,07,12,02,22,15.70
2007,07,12,02,23,15.70
2007,07,12,02,24,15.70
2007,07,12,02,25,15.70
2007,07,12,02,26,15.70
2007,07,12,02,27,15.70
2007,07,12,02,28,15.70
2007,07,12,02,29,15.70
2007,07,12,02,30,15.70
2007,07,12,02,31,15.70
2007,07,12,02,32,15.70
2007,07,12,02,33,15.70
2007,07,12,02,34,15.70
2007,07,12,02,35,15.70
2007,07,12,02,36,15.70
2007,07,12,02,37,15.70
2007,07,12,02,38,15.70
2007,07,12,02,39,15.70
2007,07,12,02,40,15.70
2007,07,12,02,41,15.70
2007,07,12,02,42,15.70
2007,07,12,02,43,15.70
2007,07,12,02,44,15.70
2007,07,12,02,45,15.70
2007,07,12,02,46,15.70
2007,07,12,02,47,15.70
2007,07,12,02,48,15.70
2007,07,12,02,49,15.70
2007,07,12,02,50,15.60
2007,07,12,02,51,15.60
2007,07,12,02,52,15.60
2007,07,12,02,53,15.60
2007,07,12,02,54,15.60
2007,07,12,02,55,15.60
2007,07,12,02,56,15.60
2007,07,12,02,57,15.60
2007,07,12,02,58,15.60
2007,07,12,02,59,15.60
2007,07,12,03,00,15.60
2007,07,12,03,01,15.60
2007,07,12,03,02,15.60
2007,07,12,03,03,15.60
2007,07,12,03,04,15.60
2007,07,12,03,05,15.60
2007,07,12,03,06,15.60
2007,07,12,03,07,15.60
2007,07,12,03,08,15.60
2007,07,12,03,09,15.60
2007,07,12,03,10,15.60
2007,07,12,03,11,15.60
2007,07,12,03,12,15.60
2007,07,12,03,13,15.60
2007,07,12,03,14,15.60
2007,07,12,03,15,15.60
2007,07,12,03,16,15.60
2007,07,12,03,17,15.60
2007,07,12,03,18,15.60
2007,07,12,03,19,15.60
2007,07,12,03,20,15.60
2007,07,12,03,21,15.60
2007,07,12,03,22,15.60
2007,07,12,03,23,15.60
2007,07,12,03,24,15.60
2007,07,12,03,25,15.60
2007,07,12,03,26,15.60
2007,07,12,03,27,15.60
2007,07,12,03,28,15.60
2007,07,12,03,29,15.60
2007,07,12,03,30,15.60
2007,07,12,03,31,15.60
2007,07,12,03,32,15.60
2007,07,12,03,33,15.60
2007,07,12,03,34,15.60
2007,07,12,03,35,15.60
2007,07,12,03,36,15.60
2007,07,12,03,37,15.60
2007,07,12,03,38,15.60
2007,07,12,03,39,15.60
2007,07,12,03,40,15.60
2007,07,12,03,41,15.60
2007,07,12,03,42,15.60
2007,07,12,03,43,15.60
2007,07,12,03,44,15.60
2007,07,12,03,45,15.60
2007,07,12,03,46,15.60
2007,07,12,03,47,15.60
2007,07,12,03,48,15.60
2007,07,12,03,49,15.60
2007,07,12,03,50,15.60
2007,07,12,03,51,15.60
2007,07,12,03,52,15.60
2007,07,12,03,53,15.60
2007,07,12,03,54,15.60
2007,07,12,03,55,15.60
2007,07,12,03,56,15.60
2007,07,12,03,57,15.60
2007,07,12,03,58,15.60
2007,07,12,03,59,15.60
2007,07,12,04,00,15.60
2007,07,12,04,01,15.60
2007,07,12,04,02,15.50
2007,07,12,04,03,15.50
2007,07,12,04,04,15.50
2007,07,12,04,05,15.50
2007,07,12,04,06,15.50
2007,07,12,04,07,15.50
2007,07,12,04,08,15.50
2007,07,12,04,09,15.50
2007,07,12,04,10,15.50
2007,07,12,04,11,15.50
2007,07,12,04,12,15.50
2007,07,12,04,13,15.50
2007,07,12,04,14,15.40
2007,07,12,04,15,15.40
2007,07,12,04,16,15.40
2007,07,12,04,17,15.40
2007,07,12,04,18,15.50
2007,07,12,04,19,15.50
2007,07,12,04,20,15.50
2007,07,12,04,21,15.50
2007,07,12,04,22,15.40
2007,07,12,04,23,15.40
2007,07,12,04,24,15.40
2007,07,12,04,25,15.40
2007,07,12,04,26,15.40
2007,07,12,04,27,15.40
2007,07,12,04,28,15.40
2007,07,12,04,29,15.40
2007,07,12,04,30,15.40
2007,07,12,04,31,15.40
2007,07,12,04,32,15.40
2007,07,12,04,33,15.30
2007,07,12,04,34,15.30
2007,07,12,04,35,15.30
2007,07,12,04,36,15.20
2007,07,12,04,37,15.20
2007,07,12,04,38,15.20
2007,07,12,04,39,15.10
2007,07,12,04,40,15.00
2007,07,12,04,41,15.00
2007,07,12,04,42,15.00
2007,07,12,04,43,15.00
2007,07,12,04,44,15.00
2007,07,12,04,45,15.00
2007,07,12,04,46,15.00
2007,07,12,04,47,15.00
2007,07,12,04,48,15.00
2007,07,12,04,49,15.00
2007,07,12,04,50,15.00
2007,07,12,04,51,15.00
2007,07,12,04,52,15.00
2007,07,12,04,53,15.00
2007,07,12,04,54,15.00
2007,07,12,04,55,14.90
2007,07,12,04,56,14.90
2007,07,12,04,57,14.90
2007,07,12,04,58,14.90
2007,07,12,04,59,14.80
2007,07,12,05,00,14.80
2007,07,12,05,01,14.80
2007,07,12,05,02,14.70
2007,07,12,05,03,14.70
2007,07,12,05,04,14.70
2007,07,12,05,05,14.70
2007,07,12,05,06,14.60
2007,07,12,05,07,14.60
2007,07,12,05,08,14.60
2007,07,12,05,09,14.60
2007,07,12,05,10,14.50
2007,07,12,05,11,14.50
2007,07,12,05,12,14.50
2007,07,12,05,13,14.40
2007,07,12,05,14,14.40
2007,07,12,05,15,14.40
2007,07,12,05,16,14.40
2007,07,12,05,17,14.40
2007,07,12,05,18,14.40
2007,07,12,05,19,14.40
2007,07,12,05,20,14.40
2007,07,12,05,21,14.40
2007,07,12,05,22,14.40
2007,07,12,05,23,14.40
2007,07,12,05,24,14.40
2007,07,12,05,25,14.40
2007,07,12,05,26,14.40
2007,07,12,05,27,14.40
2007,07,12,05,28,14.40
2007,07,12,05,29,14.40
2007,07,12,05,30,14.40
2007,07,12,05,31,14.40
2007,07,12,05,32,14.40
2007,07,12,05,33,14.40
2007,07,12,05,34,14.30
2007,07,12,05,35,14.30
2007,07,12,05,36,14.30
2007,07,12,05,37,14.30
2007,07,12,05,38,14.30
2007,07,12,05,39,14.30
2007,07,12,05,40,14.30
2007,07,12,05,41,14.30
2007,07,12,05,42,14.30
2007,07,12,05,43,14.30
2007,07,12,05,44,14.30
2007,07,12,05,45,14.30
2007,07,12,05,46,14.30
2007,07,12,05,47,14.20
2007,07,12,05,48,14.20
2007,07,12,05,49,14.20
2007,07,12,05,50,14.20
2007,07,12,05,51,14.20
2007,07,12,05,52,14.20
2007,07,12,05,53,14.20
2007,07,12,05,54,14.20
2007,07,12,05,55,14.20
2007,07,12,05,56,14.20
2007,07,12,05,57,14.20
2007,07,12,05,58,14.20
2007,07,12,05,59,14.20
2007,07,12,06,00,14.20
2007,07,12,06,01,14.20
2007,07,12,06,02,14.20
2007,07,12,06,03,14.20
2007,07,12,06,04,14.20
2007,07,12,06,05,14.20
2007,07,12,06,06,14.20
2007,07,12,06,07,14.20
2007,07,12,06,08,14.20
2007,07,12,06,09,14.20
2007,07,12,06,10,14.10
2007,07,12,06,11,14.10
2007,07,12,06,12,14.10
2007,07,12,06,13,14.10
2007,07,12,06,14,14.10
2007,07,12,06,15,14.20
2007,07,12,06,16,14.20
2007,07,12,06,17,14.20
2007,07,12,06,18,14.20
2007,07,12,06,19,14.20
2007,07,12,06,20,14.20
2007,07,12,06,21,14.20
2007,07,12,06,22,14.30
2007,07,12,06,23,14.30
2007,07,12,06,24,14.30
2007,07,12,06,25,14.30
2007,07,12,06,26,14.30
2007,07,12,06,27,14.30
2007,07,12,06,28,14.30
2007,07,12,06,29,14.40
2007,07,12,06,30,14.40
2007,07,12,06,31,14.40
2007,07,12,06,32,14.40
2007,07,12,06,33,14.40
2007,07,12,06,34,14.40
2007,07,12,06,35,14.40
2007,07,12,06,36,14.40
2007,07,12,06,37,14.40
2007,07,12,06,38,14.40
2007,07,12,06,39,14.40
2007,07,12,06,40,14.40
2007,07,12,06,41,14.40
2007,07,12,06,42,14.40
2007,07,12,06,43,14.50
2007,07,12,06,44,14.50
2007,07,12,06,45,14.50
2007,07,12,06,46,14.50
2007,07,12,06,47,14.50
2007,07,12,06,48,14.50
2007,07,12,06,49,14.60
2007,07,12,06,50,14.60
2007,07,12,06,51,14.60
2007,07,12,06,52,14.60
2007,07,12,06,53,14.70
2007,07,12,06,54,14.70
2007,07,12,06,55,14.70
2007,07,12,06,56,14.80
2007,07,12,06,57,14.80
2007,07,12,06,58,14.90
2007,07,12,06,59,15.00
2007,07,12,07,00,15.00
2007,07,12,07,01,15.00
2007,07,12,07,02,15.00
2007,07,12,07,03,15.10
2007,07,12,07,04,15.20
2007,07,12,07,05,15.30
2007,07,12,07,06,15.40
2007,07,12,07,07,15.50
2007,07,12,07,08,15.60
2007,07,12,07,09,15.70
2007,07,12,07,10,15.80
2007,07,12,07,11,15.90
2007,07,12,07,12,16.00
2007,07,12,07,13,16.10
2007,07,12,07,14,16.10
2007,07,12,07,15,16.20
2007,07,12,07,16,16.30
2007,07,12,07,17,16.30
2007,07,12,07,18,16.40
2007,07,12,07,19,16.40
2007,07,12,07,20,16.50
2007,07,12,07,21,16.60
2007,07,12,07,22,16.60
2007,07,12,07,23,16.70
2007,07,12,07,24,16.70
2007,07,12,07,25,16.70
2007,07,12,07,26,16.70
2007,07,12,07,27,16.70
2007,07,12,07,28,16.70
2007,07,12,07,29,16.70
2007,07,12,07,30,16.70
2007,07,12,07,31,16.70
2007,07,12,07,32,16.70
2007,07,12,07,33,16.70
2007,07,12,07,34,16.70
2007,07,12,07,35,16.70
2007,07,12,07,36,16.70
2007,07,12,07,37,16.70
2007,07,12,07,38,16.70
2007,07,12,07,39,16.70
2007,07,12,07,40,16.80
2007,07,12,07,41,16.80
2007,07,12,07,42,16.80
2007,07,12,07,43,16.90
2007,07,12,07,44,17.00
2007,07,12,07,45,17.00
2007,07,12,07,46,17.10
2007,07,12,07,47,17.20
2007,07,12,07,48,17.30
2007,07,12,07,49,17.40
2007,07,12,07,50,17.50
2007,07,12,07,51,17.50
2007,07,12,07,52,17.60
2007,07,12,07,53,17.60
2007,07,12,07,54,17.60
2007,07,12,07,55,17.70
2007,07,12,07,56,17.70
2007,07,12,07,57,17.70
2007,07,12,07,58,17.60
2007,07,12,07,59,17.60
2007,07,12,08,00,17.60
2007,07,12,08,01,17.60
2007,07,12,08,02,17.60
2007,07,12,08,03,17.60
2007,07,12,08,04,17.70
2007,07,12,08,05,17.70
2007,07,12,08,06,17.70
2007,07,12,08,07,17.70
2007,07,12,08,08,17.70
2007,07,12,08,09,17.70
2007,07,12,08,10,17.70
2007,07,12,08,11,17.60
2007,07,12,08,12,17.50
2007,07,12,08,13,17.50
2007,07,12,08,14,17.40
2007,07,12,08,15,17.40
2007,07,12,08,16,17.40
2007,07,12,08,17,17.30
2007,07,12,08,18,17.30
2007,07,12,08,19,17.30
2007,07,12,08,20,17.40
2007,07,12,08,21,17.40
2007,07,12,08,22,17.40
2007,07,12,08,23,17.40
2007,07,12,08,24,17.40
2007,07,12,08,25,17.40
2007,07,12,08,26,17.40
2007,07,12,08,27,17.40
2007,07,12,08,28,17.40
2007,07,12,08,29,17.40
2007,07,12,08,30,17.50
2007,07,12,08,31,17.50
2007,07,12,08,32,17.60
2007,07,12,08,33,17.60
2007,07,12,08,34,17.60
2007,07,12,08,35,17.60
2007,07,12,08,36,17.60
2007,07,12,08,37,17.60
2007,07,12,08,38,17.70
2007,07,12,08,39,17.80
2007,07,12,08,40,17.80
2007,07,12,08,41,17.90
2007,07,12,08,42,17.90
2007,07,12,08,43,18.00
2007,07,12,08,44,18.00
2007,07,12,08,45,18.10
2007,07,12,08,46,18.20
2007,07,12,08,47,18.20
2007,07,12,08,48,18.20
2007,07,12,08,49,18.20
2007,07,12,08,50,18.20
2007,07,12,08,51,18.10
2007,07,12,08,52,18.10
2007,07,12,08,53,18.10
2007,07,12,08,54,18.10
2007,07,12,08,55,18.10
2007,07,12,08,56,18.20
2007,07,12,08,57,18.20
2007,07,12,08,58,18.20
2007,07,12,08,59,18.20
2007,07,12,09,00,18.10
2007,07,12,09,01,18.10
2007,07,12,09,02,18.00
2007,07,12,09,03,18.00
2007,07,12,09,04,17.90
2007,07,12,09,05,17.80
2007,07,12,09,06,17.80
2007,07,12,09,07,17.80
2007,07,12,09,08,17.70
2007,07,12,09,09,17.70
2007,07,12,09,10,17.70
2007,07,12,09,11,17.70
2007,07,12,09,12,17.60
2007,07,12,09,13,17.60
2007,07,12,09,14,17.70
2007,07,12,09,15,17.70
2007,07,12,09,16,17.80
2007,07,12,09,17,17.80
2007,07,12,09,18,17.90
2007,07,12,09,19,17.80
2007,07,12,09,20,17.80
2007,07,12,09,21,17.80
2007,07,12,09,22,17.80
2007,07,12,09,23,17.80
2007,07,12,09,24,17.90
2007,07,12,09,25,17.90
2007,07,12,09,26,17.90
2007,07,12,09,27,17.90
2007,07,12,09,28,17.90
2007,07,12,09,29,17.90
2007,07,12,09,30,17.80
2007,07,12,09,31,17.80
2007,07,12,09,32,17.70
2007,07,12,09,33,17.70
2007,07,12,09,34,17.70
2007,07,12,09,35,17.70
2007,07,12,09,36,17.80
2007,07,12,09,37,17.90
2007,07,12,09,38,17.90
2007,07,12,09,39,18.00
2007,07,12,09,40,18.00
2007,07,12,09,41,18.10
2007,07,12,09,42,18.10
2007,07,12,09,43,18.10
2007,07,12,09,44,18.10
2007,07,12,09,45,18.10
2007,07,12,09,46,18.20
2007,07,12,09,47,18.20
2007,07,12,09,48,18.20
2007,07,12,09,49,18.20
2007,07,12,09,50,18.30
2007,07,12,09,51,18.30
2007,07,12,09,52,18.40
2007,07,12,09,53,18.40
2007,07,12,09,54,18.50
2007,07,12,09,55,18.50
2007,07,12,09,56,18.50
2007,07,12,09,57,18.50
2007,07,12,09,58,18.40
2007,07,12,09,59,18.30
2007,07,12,10,00,18.30
2007,07,12,10,01,18.30
2007,07,12,10,02,18.30
2007,07,12,10,03,18.20
2007,07,12,10,04,18.20
2007,07,12,10,05,18.20
2007,07,12,10,06,18.20
2007,07,12,10,07,18.20
2007,07,12,10,08,18.10
2007,07,12,10,09,18.00
2007,07,12,10,10,17.90
2007,07,12,10,11,17.90
2007,07,12,10,12,17.80
2007,07,12,10,13,17.90
2007,07,12,10,14,18.00
2007,07,12,10,15,18.10
2007,07,12,10,16,18.10
2007,07,12,10,17,18.10
2007,07,12,10,18,18.20
2007,07,12,10,19,18.10
2007,07,12,10,20,18.10
2007,07,12,10,21,18.10
2007,07,12,10,22,18.00
2007,07,12,10,23,17.90
2007,07,12,10,24,17.90
2007,07,12,10,25,17.90
2007,07,12,10,26,18.00
2007,07,12,10,27,17.90
2007,07,12,10,28,17.90
2007,07,12,10,29,17.80
2007,07,12,10,30,17.80
2007,07,12,10,31,17.70
2007,07,12,10,32,17.70
2007,07,12,10,33,17.70
2007,07,12,10,34,17.60
2007,07,12,10,35,17.60
2007,07,12,10,36,17.60
2007,07,12,10,37,17.60
2007,07,12,10,38,17.50
2007,07,12,10,39,17.50
2007,07,12,10,40,17.50
2007,07,12,10,41,17.50
2007,07,12,10,42,17.40
2007,07,12,10,43,17.40
2007,07,12,10,44,17.40
2007,07,12,10,45,17.30
2007,07,12,10,46,17.30
2007,07,12,10,47,17.40
2007,07,12,10,48,17.40
2007,07,12,10,49,17.40
2007,07,12,10,50,17.40
2007,07,12,10,51,17.40
2007,07,12,10,52,17.40
2007,07,12,10,53,17.40
2007,07,12,10,54,17.40
2007,07,12,10,55,17.40
2007,07,12,10,56,17.40
2007,07,12,10,57,17.40
2007,07,12,10,58,17.30
2007,07,12,10,59,17.20
2007,07,12,11,00,17.20
2007,07,12,11,01,17.10
2007,07,12,11,02,17.10
2007,07,12,11,03,17.10
2007,07,12,11,04,17.10
2007,07,12,11,05,17.10
2007,07,12,11,06,17.10
2007,07,12,11,07,17.10
2007,07,12,11,08,17.20
2007,07,12,11,09,17.30
2007,07,12,11,10,17.40
2007,07,12,11,11,17.40
2007,07,12,11,12,17.50
2007,07,12,11,13,17.50
2007,07,12,11,14,17.60
2007,07,12,11,15,17.60
2007,07,12,11,16,17.70
2007,07,12,11,17,17.70
2007,07,12,11,18,17.70
2007,07,12,11,19,17.70
2007,07,12,11,20,17.70
2007,07,12,11,21,17.70
2007,07,12,11,22,17.70
2007,07,12,11,23,17.70
2007,07,12,11,24,17.70
2007,07,12,11,25,17.70
2007,07,12,11,26,17.70
2007,07,12,11,27,17.70
2007,07,12,11,28,17.70
2007,07,12,11,29,17.70
2007,07,12,11,30,17.70
2007,07,12,11,31,17.80
2007,07,12,11,32,17.80
2007,07,12,11,33,17.80
2007,07,12,11,34,17.80
2007,07,12,11,35,17.80
2007,07,12,11,36,17.80
2007,07,12,11,37,17.70
2007,07,12,11,38,17.70
2007,07,12,11,39,17.70
2007,07,12,11,40,17.60
2007,07,12,11,41,17.60
2007,07,12,11,42,17.60
2007,07,12,11,43,17.50
2007,07,12,11,44,17.50
2007,07,12,11,45,17.40
2007,07,12,11,46,17.40
2007,07,12,11,47,17.40
2007,07,12,11,48,17.40
2007,07,12,11,49,17.40
2007,07,12,11,50,17.50
2007,07,12,11,51,17.50
2007,07,12,11,52,17.60
2007,07,12,11,53,17.60
2007,07,12,11,54,17.60
2007,07,12,11,55,17.60
2007,07,12,11,56,17.60
2007,07,12,11,57,17.60
2007,07,12,11,58,17.60
2007,07,12,11,59,17.60
2007,07,12,12,00,17.60
2007,07,12,12,01,17.60
2007,07,12,12,02,17.60
2007,07,12,12,03,17.50
2007,07,12,12,04,17.50
2007,07,12,12,05,17.50
2007,07,12,12,06,17.40
2007,07,12,12,07,17.30
2007,07,12,12,08,17.30
2007,07,12,12,09,17.30
2007,07,12,12,10,17.30
2007,07,12,12,11,17.30
2007,07,12,12,12,17.40
2007,07,12,12,13,17.40
2007,07,12,12,14,17.40
2007,07,12,12,15,17.40
2007,07,12,12,16,17.40
2007,07,12,12,17,17.50
2007,07,12,12,18,17.50
2007,07,12,12,19,17.60
2007,07,12,12,20,17.60
2007,07,12,12,21,17.60
2007,07,12,12,22,17.70
2007,07,12,12,23,17.70
2007,07,12,12,24,17.70
2007,07,12,12,25,17.70
2007,07,12,12,26,17.80
2007,07,12,12,27,17.90
2007,07,12,12,28,17.90
2007,07,12,12,29,18.00
2007,07,12,12,30,18.10
2007,07,12,12,31,18.10
2007,07,12,12,32,18.20
2007,07,12,12,33,18.30
2007,07,12,12,34,18.40
2007,07,12,12,35,18.50
2007,07,12,12,36,18.60
2007,07,12,12,37,18.70
2007,07,12,12,38,18.70
2007,07,12,12,39,18.80
2007,07,12,12,40,18.70
2007,07,12,12,41,18.70
2007,07,12,12,42,18.70
2007,07,12,12,43,18.80
2007,07,12,12,44,18.80
2007,07,12,12,45,18.80
2007,07,12,12,46,18.80
2007,07,12,12,47,18.70
2007,07,12,12,48,18.70
2007,07,12,12,49,18.80
2007,07,12,12,50,18.80
2007,07,12,12,51,18.90
2007,07,12,12,52,18.90
2007,07,12,12,53,18.90
2007,07,12,12,54,18.90
2007,07,12,12,55,18.80
2007,07,12,12,56,18.80
2007,07,12,12,57,18.70
2007,07,12,12,58,18.70
2007,07,12,12,59,18.70
2007,07,12,13,00,18.60
2007,07,12,13,01,18.40
2007,07,12,13,02,18.30
2007,07,12,13,03,18.20
2007,07,12,13,04,18.20
2007,07,12,13,05,18.20
2007,07,12,13,06,18.20
2007,07,12,13,07,18.20
2007,07,12,13,08,18.20
2007,07,12,13,09,18.30
2007,07,12,13,10,18.20
2007,07,12,13,11,18.20
2007,07,12,13,12,18.20
2007,07,12,13,13,18.20
2007,07,12,13,14,18.20
2007,07,12,13,15,18.30
2007,07,12,13,16,18.30
2007,07,12,13,17,18.30
2007,07,12,13,18,18.20
2007,07,12,13,19,18.20
2007,07,12,13,20,18.20
2007,07,12,13,21,18.10
2007,07,12,13,22,18.10
2007,07,12,13,23,18.00
2007,07,12,13,24,18.00
2007,07,12,13,25,17.90
2007,07,12,13,26,17.90
2007,07,12,13,27,17.90
2007,07,12,13,28,17.90
2007,07,12,13,29,17.80
2007,07,12,13,30,17.80
2007,07,12,13,31,17.80
2007,07,12,13,32,17.70
2007,07,12,13,33,17.70
2007,07,12,13,34,17.70
2007,07,12,13,35,17.60
2007,07,12,13,36,17.60
2007,07,12,13,37,17.60
2007,07,12,13,38,17.60
2007,07,12,13,39,17.60
2007,07,12,13,40,17.50
2007,07,12,13,41,17.50
2007,07,12,13,42,17.40
2007,07,12,13,43,17.40
2007,07,12,13,44,17.40
2007,07,12,13,45,17.30
2007,07,12,13,46,17.30
2007,07,12,13,47,17.30
2007,07,12,13,48,17.40
2007,07,12,13,49,17.40
2007,07,12,13,50,17.40
2007,07,12,13,51,17.40
2007,07,12,13,52,17.40
2007,07,12,13,53,17.50
2007,07,12,13,54,17.50
2007,07,12,13,55,17.50
2007,07,12,13,56,17.40
2007,07,12,13,57,17.40
2007,07,12,13,58,17.40
2007,07,12,13,59,17.40
2007,07,12,14,00,17.40
2007,07,12,14,01,17.40
2007,07,12,14,02,17.50
2007,07,12,14,03,17.50
2007,07,12,14,04,17.60
2007,07,12,14,05,17.60
2007,07,12,14,06,17.60
2007,07,12,14,07,17.70
2007,07,12,14,08,17.70
2007,07,12,14,09,17.70
2007,07,12,14,10,17.80
2007,07,12,14,11,17.80
2007,07,12,14,12,17.80
2007,07,12,14,13,17.80
2007,07,12,14,14,17.80
2007,07,12,14,15,17.80
2007,07,12,14,16,17.80
2007,07,12,14,17,17.80
2007,07,12,14,18,17.80
2007,07,12,14,19,17.90
2007,07,12,14,20,17.90
2007,07,12,14,21,18.00
2007,07,12,14,22,18.00
2007,07,12,14,23,18.10
2007,07,12,14,24,18.00
2007,07,12,14,25,18.00
2007,07,12,14,26,18.00
2007,07,12,14,27,18.00
2007,07,12,14,28,18.00
2007,07,12,14,29,17.90
2007,07,12,14,30,17.80
2007,07,12,14,31,17.80
2007,07,12,14,32,17.70
2007,07,12,14,33,17.70
2007,07,12,14,34,17.80
2007,07,12,14,35,17.70
2007,07,12,14,36,17.70
2007,07,12,14,37,17.70
2007,07,12,14,38,17.70
2007,07,12,14,39,17.70
2007,07,12,14,40,17.70
2007,07,12,14,41,17.80
2007,07,12,14,42,17.80
2007,07,12,14,43,17.80
2007,07,12,14,44,17.70
2007,07,12,14,45,17.60
2007,07,12,14,46,17.50
2007,07,12,14,47,17.50
2007,07,12,14,48,17.50
2007,07,12,14,49,17.50
2007,07,12,14,50,17.40
2007,07,12,14,51,17.40
2007,07,12,14,52,17.40
2007,07,12,14,53,17.40
2007,07,12,14,54,17.50
2007,07,12,14,55,17.50
2007,07,12,14,56,17.60
2007,07,12,14,57,17.70
2007,07,12,14,58,17.80
2007,07,12,14,59,17.90
2007,07,12,15,00,18.00
2007,07,12,15,01,18.20
2007,07,12,15,02,18.30
2007,07,12,15,03,18.50
2007,07,12,15,04,18.70
2007,07,12,15,05,18.80
2007,07,12,15,06,19.00
2007,07,12,15,07,19.10
2007,07,12,15,08,19.30
2007,07,12,15,09,19.40
2007,07,12,15,10,19.50
2007,07,12,15,11,19.70
2007,07,12,15,12,19.70
2007,07,12,15,13,19.80
2007,07,12,15,14,19.90
2007,07,12,15,15,20.10
2007,07,12,15,16,20.10
2007,07,12,15,17,20.20
2007,07,12,15,18,20.20
2007,07,12,15,19,20.30
2007,07,12,15,20,20.40
2007,07,12,15,21,20.50
2007,07,12,15,22,20.60
2007,07,12,15,23,20.70
2007,07,12,15,24,20.80
2007,07,12,15,25,20.80
2007,07,12,15,26,20.80
2007,07,12,15,27,20.90
2007,07,12,15,28,20.80
2007,07,12,15,29,20.90
2007,07,12,15,30,20.80
2007,07,12,15,31,20.90
2007,07,12,15,32,20.90
2007,07,12,15,33,20.90
2007,07,12,15,34,20.80
2007,07,12,15,35,20.80
2007,07,12,15,36,20.70
2007,07,12,15,37,20.70
2007,07,12,15,38,20.70
2007,07,12,15,39,20.70
2007,07,12,15,40,20.70
2007,07,12,15,41,20.60
2007,07,12,15,42,20.50
2007,07,12,15,43,20.50
2007,07,12,15,44,20.50
2007,07,12,15,45,20.40
2007,07,12,15,46,20.40
2007,07,12,15,47,20.30
2007,07,12,15,48,20.30
2007,07,12,15,49,20.40
2007,07,12,15,50,20.40
2007,07,12,15,51,20.40
2007,07,12,15,52,20.40
2007,07,12,15,53,20.40
2007,07,12,15,54,20.50
2007,07,12,15,55,20.50
2007,07,12,15,56,20.40
2007,07,12,15,57,20.30
2007,07,12,15,58,20.20
2007,07,12,15,59,20.00
2007,07,12,16,00,20.00
2007,07,12,16,01,19.90
2007,07,12,16,02,19.90
2007,07,12,16,03,19.80
2007,07,12,16,04,19.80
2007,07,12,16,05,19.80
2007,07,12,16,06,19.80
2007,07,12,16,07,19.70
2007,07,12,16,08,19.60
2007,07,12,16,09,19.50
2007,07,12,16,10,19.40
2007,07,12,16,11,19.30
2007,07,12,16,12,19.30
2007,07,12,16,13,19.20
2007,07,12,16,14,19.20
2007,07,12,16,15,19.20
2007,07,12,16,16,19.20
2007,07,12,16,17,19.30
2007,07,12,16,18,19.20
2007,07,12,16,19,19.20
2007,07,12,16,20,19.10
2007,07,12,16,21,18.90
2007,07,12,16,22,18.80
2007,07,12,16,23,18.70
2007,07,12,16,24,18.70
2007,07,12,16,25,18.60
2007,07,12,16,26,18.60
2007,07,12,16,27,18.50
2007,07,12,16,28,18.50
2007,07,12,16,29,18.50
2007,07,12,16,30,18.50
2007,07,12,16,31,18.50
2007,07,12,16,32,18.50
2007,07,12,16,33,18.50
2007,07,12,16,34,18.60
2007,07,12,16,35,18.60
2007,07,12,16,36,18.60
2007,07,12,16,37,18.60
2007,07,12,16,38,18.60
2007,07,12,16,39,18.60
2007,07,12,16,40,18.60
2007,07,12,16,41,18.60
2007,07,12,16,42,18.60
2007,07,12,16,43,18.60
2007,07,12,16,44,18.60
2007,07,12,16,45,18.60
2007,07,12,16,46,18.60
2007,07,12,16,47,18.60
2007,07,12,16,48,18.70
2007,07,12,16,49,18.70
2007,07,12,16,50,18.80
2007,07,12,16,51,18.80
2007,07,12,16,52,18.80
2007,07,12,16,53,18.70
2007,07,12,16,54,18.70
2007,07,12,16,55,18.70
2007,07,12,16,56,18.60
2007,07,12,16,57,18.50
2007,07,12,16,58,18.40
2007,07,12,16,59,18.40
2007,07,12,17,00,18.40
2007,07,12,17,01,18.40
2007,07,12,17,02,18.40
2007,07,12,17,03,18.40
2007,07,12,17,04,18.40
2007,07,12,17,05,18.50
2007,07,12,17,06,18.40
2007,07,12,17,07,18.40
2007,07,12,17,08,18.40
2007,07,12,17,09,18.40
2007,07,12,17,10,18.30
2007,07,12,17,11,18.30
2007,07,12,17,12,18.30
2007,07,12,17,13,18.30
2007,07,12,17,14,18.40
2007,07,12,17,15,18.50
2007,07,12,17,16,18.50
2007,07,12,17,17,18.50
2007,07,12,17,18,18.50
2007,07,12,17,19,18.50